sat.trackr.live / text

‹ back to catalog

SHIYAN-1 (SY-1)

NORAD 28220 · 2004-012A

PAYLOAD ACTIVE UNKNOWN

§ Identity

Operator
Country
PRC
Launch date
2004-04-18
Launch site
XICLF
Launch vehicle
Mass (kg)
RCS (m²)
1.55

Purposes: earth_obs

External: N2YO · Heavens-Above · Gunter

§ Orbital elements

Epoch: 2026-09-14T05:46:57.020736Z

Period
93.76 min
Inclination
97.8639°
Eccentricity
0.0006310
Mean motion
15.35854611 rev/d
Perigee alt
454.1 km
Apogee alt
462.7 km
Semi-major
6,836.5 km
B*
3.2106e-4
RAAN
341.2122°
Arg perigee
70.7733°
Mean anomaly
289.4191°
Rev number
22,475

§ Raw data

SHIYAN-1 (SY-1)1 28220U 04012A   26257.24093774  .00011123  00000+0  32106-3 0  99912 28220  97.8639 341.2122 0006310  70.7733 289.4191 15.35854611224753

JSON: /api/v1/satellites/28220 · /tle

For live sub-satellite position, see the globe view (requires WebGL).

§ Visibility from observer

Set your observer location to see the next 7 days of passes ≥ 10°. The values pass through the URL so the page stays shareable.

No JS? Fill the form by hand. The geolocation button needs JavaScript.